Flag for Mauritania

Past Weather in Nouadhibou, Mauritania — Yesterday and Last 2 Weeks

Now
81 °F

Sunny.


Feels Like: 81 °F
Forecast: 83 / 71 °F
Wind: 15 mph from Northeast

Location: Nouadhibou Airport

Current Time: Jul 10, 2020 at 10:52:46 am

Latest Report: Jul 10, 2020 at 10:00 am


Visibility: 10 mi

Pressure: 29.80 "Hg

Humidity: 48%

Dew Point: 59 °F

Location of NouadhibouLocation

Past Weather in Nouadhibou — Graph

°F

Nouadhibou Temperature Yesterday

Maximum temperature yesterday: 104 °F (at 1:00 pm)
Minimum temperature yesterday: 73 °F (at 12:00 am)
Average temperature yesterday: 82 °F

High & Low Weather Summary for the Past Weeks

 TemperatureHumidityPressure
High104 °F (Jul 9, 1:00 pm)100% (Jul 8, 5:00 am)29.95 "Hg (Jul 8, 5:00 am)
Low66 °F (Jul 3, 4:00 am)20% (Jul 9, 1:00 pm)29.71 "Hg (Jul 4, 5:00 pm)
Average73 °F75%29.84 "Hg
* Reported Jun 25 9:00 am — Jul 10 9:00 am, Nouadhibou. Weather by CustomWeather, © 2020

Note: Actual official high and low records may vary slightly from our data, if they occured in-between our weather recording intervals... More about our weather records

Nouadhibou Weather History for the Previous 24 Hours

Scroll right to see more
 ConditionsComfort  
Time TempWeatherWind HumidityBarometerVisibility
9:00 am
Fri, Jul 10
77 °FSunny.17 mph57%29.77 "Hg10 mi
8:00 am73 °FSunny.13 mph65%29.80 "Hg10 mi
6:00 am75 °FClear.14 mph61%29.74 "Hg5 mi
5:00 am75 °FClear.18 mph65%29.74 "Hg5 mi
4:00 am77 °FClear.21 mph61%29.71 "Hg5 mi
3:00 am79 °FClear.23 mph58%29.71 "Hg5 mi
2:00 am81 °FClear.23 mph54%29.74 "Hg5 mi
1:00 am81 °FClear.24 mph54%29.74 "Hg4 mi
12:00 am81 °FClear.25 mph58%29.77 "Hg4 mi
11:00 pm
Thu, Jul 9
81 °FClear.23 mph54%29.74 "Hg5 mi
10:00 pm81 °FClear.21 mph54%29.74 "Hg5 mi
9:00 pm79 °FClear.18 mph58%29.71 "Hg5 mi
8:00 pm77 °FSandstorm.18 mph65%29.71 "Hg4 mi
7:00 pm81 °FSandstorm.18 mph58%29.71 "Hg4 mi
6:00 pm82 °FClear.17 mph55%29.71 "Hg4 mi
5:00 pm86 °FClear.15 mph52%29.71 "Hg4 mi
4:00 pm88 °FClear.16 mph46%29.71 "Hg4 mi
3:00 pm88 °FClear.16 mph49%29.71 "Hg4 mi
2:00 pm95 °FClear.12 mph39%29.74 "Hg4 mi
1:00 pm104 °FClear.17 mph20%29.77 "Hg4 mi
12:00 pm97 °FClear.21 mph30%29.77 "Hg4 mi
11:00 am91 °FClear.21 mph36%29.77 "Hg4 mi
10:00 am84 °FClear.21 mph51%29.77 "Hg4 mi
Weather by CustomWeather, © 2020

See weather overview